Temp
71 72 73 73 74 74 74 74 74 74 74 75 75 75 75 74 73 72 73 73 75 74 74 74 74 74 74 75 74 75 75 75 75 75 72 70 69 68 68 67 67 67 67 67 67 66 66 64 63 61 58 55
69 71 72 72 72 72 72 73 73 73 73 74 73 73 72 71 70 71 72 72 73 73 73 73 73 73 74 74 75 75 75 75 75 73 70 69 68 68 67 67 67 66 67 66 66 65 65 64 62 60 58 54
68 68 70 70 71 71 71 72 72 72 71 71 71 70 69 68 68 68 69 71 72 71 70 69 70 72 73 74 74 74 74 74 74 72 69 68 68 68 67 67 66 66 66 66 65 64 63 61 59 59 55 51
69 66 66 68 69 69 70 70 71 71 69 69 67 67 66 65 66 65 66 65 68 68 69 68 67 69 71 73 73 73 73 73 73 71 68 68 68 67 67 66 66 65 65 65 64 63 62 59 57 50 48 49
69 69 65 66 66 67 68 68 68 69 66 64 64 64 63 62 66 67 67 66 69 65 67 64 63 68 70 71 71 71 72 72 72 71 68 68 67 67 66 65 64 64 65 65 64 63 60 56 49 49 48 50
69 69 66 69 68 66 67 65 65 66 67 64 66 62 64 65 65 66 67 67 65 66 65 64 63 65 68 70 68 69 71 71 71 70 68 68 67 66 64 61 48 50 58 62 61 59 56 47 45 46 48 48
68 68 68 69 69 67 64 65 64 66 65 65 66 64 64 64 65 65 66 67 65 65 62 64 62 64 66 68 66 67 69 70 71 70 68 68 67 64 61 50 45 44 44 46 54 50 45 44 44 45 46 46
68 68 68 68 68 68 67 66 65 66 65 65 65 64 64 64 65 65 66 63 61 61 63 63 61 63 64 65 63 63 65 67 68 69 69 68 64 59 51 44 45 44 45 44 43 44 45 44 44 44 45 45
66 67 67 67 67 67 67 66 66 67 67 66 66 65 65 65 64 64 64 64 63 63 63 62 62 63 64 60 57 60 59 60 61 62 59 57 54 49 47 45 44 45 47 46 47 46 45 46 43 44 44 44
65 65 66 67 67 67 66 66 66 66 67 66 66 65 65 65 64 63 63 62 62 62 61 61 60 61 58 56 58 56 57 56 57 56 54 52 51 48 46 45 44 44 46 46 46 45 45 45 45 43 43 44
63 64 66 66 67 66 66 66 66 66 67 67 66 65 65 64 64 63 62 62 61 61 60 61 60 59 57 57 56 55 56 55 54 53 52 51 51 48 46 45 45 44 44 44 45 45 44 44 44 43 43 43
63 63 63 64 64 66 65 65 65 66 66 66 66 65 64 64 65 64 62 62 61 60 60 60 60 58 56 56 55 54 55 54 52 51 51 51 50 49 45 45 44 44 44 42 43 45 43 44 43 43 42 42
63 62 62 62 63 64 63 65 65 66 66 66 65 64 64 64 63 63 62 61 61 59 59 58 58 56 55 55 55 54 53 54 52 51 50 50 50 49 48 44 43 43 43 43 43 45 43 44 42 42 41 41
61 61 62 62 63 63 62 63 64 63 64 65 65 64 64 64 64 62 62 61 59 58 58 56 56 55 54 54 53 54 54 51 52 51 48 48 50 49 47 44 44 44 44 44 44 43 45 43 45 42 42 41
62 61 61 61 61 62 62 62 62 62 63 63 64 64 64 64 64 62 61 60 59 58 57 55 55 54 53 53 53 54 54 51 52 50 50 50 49 49 47 45 44 44 45 44 43 43 44 45 42 43 42 43
61 60 60 59 60 61 61 61 61 61 61 61 62 61 61 61 62 62 61 60 59 59 57 55 54 53 53 54 52 53 53 51 51 50 49 47 47 46 46 45 43 42 44 43 46 41 43 42 43 43 42 42
59 58 58 59 60 60 60 60 60 60 60 61 61 61 61 60 60 60 61 60 59 57 56 55 54 53 53 53 53 53 51 51 48 48 46 46 46 45 44 44 43 43 42 43 43 41 42 42 42 42 41 43
57 57 56 57 57 58 59 59 59 59 59 60 60 60 60 60 60 59 58 58 57 57 55 55 55 54 53 52 52 52 51 50 49 47 46 45 44 46 45 44 43 42 42 42 41 41 41 41 44 43 42 42
54 54 55 55 56 57 58 58 59 59 59 59 59 59 59 59 59 59 58 57 57 56 55 54 54 53 53 52 52 52 49 50 48 48 47 44 47 43 44 43 42 42 44 42 44 44 42 45 41 40 44 43
55 55 54 54 54 55 55 56 57 57 58 58 56 58 58 58 58 58 57 57 57 56 55 55 54 53 52 51 51 51 48 49 48 47 47 46 47 45 43 42 42 41 41 41 43 41 42 43 42 42 41 43
55 55 55 55 55 56 55 55 56 56 55 56 57 56 57 56 57 57 56 56 56 57 55 54 54 52 52 51 51 50 48 48 48 48 48 45 46 48 45 43 42 40 40 41 42 40 40 41 42 43 43 43
53 53 54 54 54 55 55 55 55 55 55 55 55 55 55 55 55 55 56 56 56 56 56 54 54 52 52 52 51 50 48 48 46 46 48 47 43 45 45 44 44 43 40 40 41 39 39 39 39 41 41 43
53 53 54 53 53 54 54 54 54 54 54 54 54 54 55 55 55 54 55 55 56 56 55 55 54 54 53 53 52 51 50 48 45 44 45 48 44 42 43 45 44 43 41 40 40 39 39 38 39 41 39 40
52 52 51 51 52 52 51 52 52 53 53 54 54 54 54 54 55 55 54 54 54 54 53 54 53 53 52 52 52 51 50 49 49 49 47 46 46 43 43 42 41 39 40 36 36 37 39 37 37 39 39 39
49 49 49 50 49 47 47 48 50 51 52 54 53 54 54 54 53 54 54 53 53 53 51 51 50 50 50 51 52 52 52 52 51 51 51 48 46 46 43 42 38 39 41 41 41 38 35 35 35 36 39 39
48 46 44 46 45 46 47 48 48 48 48 49 50 50 51 52 53 53 52 51 52 51 51 51 50 49 49 49 50 50 50 49 48 48 48 48 47 46 48 45 41 41 44 40 39 38 38 35 37 36 38 40
45 46 47 47 46 46 45 45 45 45 45 47 49 48 47 47 48 49 50 50 50 50 50 49 49 50 49 50 49 48 49 48 48 49 49 48 50 47 45 46 42 42 47 41 34 33 36 34 37 38 40 41
45 45 45 46 46 47 47 45 46 48 48 47 49 49 48 48 47 47 46 46 46 47 46 46 48 49 49 49 49 49 49 49 48 48 48 48 49 49 47 46 46 45 46 38 44 39 40 33 33 33 40 42
45 46 46 46 48 48 47 47 46 45 45 44 44 45 44 44 44 46 46 45 45 45 45 44 44 45 46 48 49 49 49 49 49 49 49 48 48 48 50 47 46 45 46 45 48 44 34 34 36 35 32 34
45 44 44 43 42 41 41 40 40 40 39 41 41 41 43 44 43 43 45 44 44 44 43 44 43 42 44 44 45 48 48 49 48 48 48 49 49 48 49 50 48 45 45 47 46 42 39 38 37 36 31 40
44 43 43 42 40 39 39 38 39 39 40 40 41 42 42 42 43 43 42 43 43 43 43 43 43 42 41 41 41 42 45 47 48 48 48 48 48 49 49 47 46 46 47 46 45 44 43 39 35 32 36 37
MSLP
1016.72 1016.84 1017.00 1017.16 1017.32 1017.52 1017.68 1017.80 1017.96 1018.08 1018.20 1018.32 1018.44 1018.56 1018.68 1018.80 1019.00 1019.24 1019.44 1019.64 1019.68 1019.84 1020.00 1020.08 1020.16 1020.24 1020.36 1020.44 1020.56 1020.64 1020.72 1020.68 1020.80 1020.92 1021.08 1021.28 1021.48 1021.68 1021.84 1021.84 1021.88 1021.92 1021.88 1021.84 1021.84 1021.80 1021.76 1021.68 1021.68 1021.72 1021.72 1021.80
1016.60 1016.76 1016.88 1017.04 1017.16 1017.32 1017.48 1017.68 1017.84 1018.00 1018.12 1018.24 1018.36 1018.48 1018.60 1018.76 1018.92 1019.08 1019.28 1019.52 1019.68 1019.84 1020.00 1020.12 1020.24 1020.32 1020.36 1020.44 1020.48 1020.56 1020.60 1020.68 1020.80 1021.00 1021.24 1021.44 1021.60 1021.80 1021.92 1021.96 1021.96 1022.00 1022.00 1022.00 1022.00 1021.96 1021.92 1021.88 1021.88 1021.88 1021.92 1021.96
1016.52 1016.60 1016.76 1016.92 1017.08 1017.24 1017.36 1017.52 1017.68 1017.84 1018.04 1018.20 1018.32 1018.44 1018.60 1018.76 1018.88 1019.08 1019.20 1019.32 1019.52 1019.64 1019.84 1020.04 1020.16 1020.24 1020.32 1020.40 1020.44 1020.48 1020.52 1020.72 1020.88 1021.08 1021.32 1021.52 1021.68 1021.84 1021.92 1022.00 1022.08 1022.12 1022.12 1022.12 1022.12 1022.12 1022.08 1022.08 1022.08 1022.08 1022.12 1022.16
1016.48 1016.60 1016.72 1016.84 1017.00 1017.12 1017.28 1017.40 1017.56 1017.68 1017.88 1018.08 1018.24 1018.40 1018.52 1018.72 1018.88 1019.04 1019.24 1019.32 1019.48 1019.56 1019.64 1019.84 1020.04 1020.16 1020.28 1020.36 1020.40 1020.44 1020.52 1020.72 1020.88 1021.08 1021.32 1021.52 1021.68 1021.84 1021.96 1022.04 1022.12 1022.16 1022.20 1022.20 1022.20 1022.20 1022.20 1022.20 1022.24 1022.32 1022.36 1022.32
1016.48 1016.60 1016.76 1016.88 1016.96 1017.04 1017.20 1017.36 1017.48 1017.64 1017.80 1017.96 1018.20 1018.36 1018.52 1018.68 1018.80 1019.04 1019.20 1019.36 1019.44 1019.56 1019.68 1019.80 1020.00 1020.12 1020.24 1020.36 1020.40 1020.44 1020.56 1020.72 1020.84 1021.04 1021.28 1021.48 1021.64 1021.80 1021.92 1022.08 1022.16 1022.20 1022.16 1022.20 1022.20 1022.20 1022.24 1022.28 1022.36 1022.48 1022.48 1022.48
1016.52 1016.60 1016.80 1016.88 1017.00 1017.16 1017.28 1017.40 1017.52 1017.72 1017.84 1018.00 1018.16 1018.32 1018.48 1018.68 1018.80 1018.96 1019.12 1019.28 1019.36 1019.56 1019.68 1019.80 1019.92 1020.12 1020.28 1020.40 1020.44 1020.48 1020.56 1020.72 1020.84 1021.00 1021.24 1021.44 1021.60 1021.72 1021.96 1022.12 1022.28 1022.28 1022.24 1022.20 1022.20 1022.24 1022.28 1022.36 1022.44 1022.52 1022.56 1022.56
1016.56 1016.64 1016.76 1016.84 1017.00 1017.20 1017.32 1017.48 1017.64 1017.76 1017.92 1018.08 1018.24 1018.40 1018.52 1018.68 1018.84 1018.96 1019.04 1019.20 1019.32 1019.52 1019.68 1019.80 1019.88 1020.04 1020.28 1020.40 1020.48 1020.56 1020.60 1020.72 1020.84 1021.00 1021.16 1021.40 1021.56 1021.76 1021.96 1022.20 1022.28 1022.32 1022.36 1022.24 1022.24 1022.28 1022.32 1022.36 1022.44 1022.52 1022.56 1022.60
1016.48 1016.60 1016.72 1016.88 1016.96 1017.16 1017.32 1017.48 1017.64 1017.80 1017.96 1018.12 1018.28 1018.48 1018.64 1018.76 1018.92 1019.00 1019.08 1019.20 1019.36 1019.56 1019.76 1019.88 1020.00 1020.00 1020.16 1020.36 1020.48 1020.60 1020.68 1020.76 1020.88 1020.96 1021.12 1021.36 1021.68 1021.88 1022.12 1022.28 1022.32 1022.36 1022.32 1022.24 1022.28 1022.32 1022.36 1022.40 1022.48 1022.48 1022.56 1022.60
1016.44 1016.56 1016.76 1016.84 1017.00 1017.12 1017.28 1017.48 1017.60 1017.72 1017.88 1018.04 1018.24 1018.44 1018.60 1018.72 1018.92 1019.04 1019.12 1019.28 1019.48 1019.60 1019.76 1019.96 1020.12 1020.16 1020.28 1020.44 1020.60 1020.64 1020.80 1020.88 1020.96 1021.08 1021.28 1021.56 1021.92 1022.16 1022.24 1022.32 1022.36 1022.36 1022.28 1022.32 1022.32 1022.40 1022.48 1022.48 1022.52 1022.52 1022.60 1022.64
1016.40 1016.64 1016.80 1016.88 1016.96 1017.16 1017.28 1017.40 1017.56 1017.64 1017.76 1017.96 1018.16 1018.36 1018.56 1018.72 1018.96 1019.08 1019.16 1019.32 1019.48 1019.64 1019.72 1019.92 1020.08 1020.20 1020.32 1020.44 1020.56 1020.64 1020.80 1020.92 1021.04 1021.20 1021.40 1021.72 1022.04 1022.20 1022.28 1022.32 1022.40 1022.48 1022.44 1022.40 1022.48 1022.52 1022.60 1022.64 1022.56 1022.60 1022.64 1022.68
1016.28 1016.44 1016.56 1016.72 1016.88 1017.12 1017.32 1017.36 1017.52 1017.64 1017.68 1017.84 1018.08 1018.28 1018.52 1018.76 1018.96 1019.08 1019.20 1019.36 1019.48 1019.60 1019.68 1019.80 1019.96 1020.12 1020.32 1020.44 1020.60 1020.72 1020.80 1021.00 1021.12 1021.24 1021.44 1021.68 1021.92 1022.20 1022.28 1022.40 1022.48 1022.52 1022.60 1022.64 1022.52 1022.60 1022.68 1022.76 1022.68 1022.68 1022.72 1022.76
1016.16 1016.28 1016.48 1016.60 1016.80 1017.00 1017.12 1017.32 1017.44 1017.52 1017.60 1017.76 1018.04 1018.24 1018.44 1018.68 1018.88 1019.04 1019.28 1019.40 1019.52 1019.60 1019.76 1019.80 1019.96 1020.12 1020.32 1020.44 1020.56 1020.72 1020.80 1021.00 1021.24 1021.36 1021.52 1021.68 1021.88 1022.12 1022.32 1022.36 1022.48 1022.56 1022.64 1022.68 1022.64 1022.56 1022.68 1022.72 1022.72 1022.72 1022.80 1022.84
1015.92 1016.16 1016.32 1016.52 1016.68 1016.80 1016.92 1017.16 1017.32 1017.44 1017.60 1017.80 1017.96 1018.20 1018.40 1018.64 1018.80 1018.92 1019.16 1019.40 1019.52 1019.72 1019.88 1020.00 1020.16 1020.28 1020.40 1020.52 1020.60 1020.76 1020.92 1020.96 1021.24 1021.52 1021.64 1021.76 1021.88 1022.08 1022.28 1022.44 1022.48 1022.60 1022.64 1022.68 1022.64 1022.56 1022.60 1022.64 1022.72 1022.72 1022.76 1022.80
1016.00 1016.08 1016.28 1016.40 1016.48 1016.60 1016.84 1017.00 1017.12 1017.36 1017.60 1017.68 1017.88 1018.12 1018.28 1018.48 1018.64 1018.80 1019.04 1019.28 1019.52 1019.72 1019.96 1020.16 1020.32 1020.44 1020.52 1020.64 1020.76 1020.84 1020.92 1021.16 1021.28 1021.52 1021.84 1021.92 1022.00 1022.12 1022.28 1022.44 1022.52 1022.64 1022.56 1022.60 1022.56 1022.60 1022.52 1022.64 1022.64 1022.72 1022.72 1022.76
1015.96 1016.12 1016.24 1016.32 1016.44 1016.60 1016.76 1016.88 1017.08 1017.32 1017.44 1017.64 1017.76 1017.92 1018.08 1018.32 1018.48 1018.68 1018.96 1019.16 1019.40 1019.64 1019.80 1020.12 1020.32 1020.48 1020.64 1020.76 1020.88 1020.96 1021.00 1021.24 1021.32 1021.56 1021.68 1021.88 1022.04 1022.16 1022.36 1022.44 1022.64 1022.72 1022.60 1022.56 1022.60 1022.56 1022.52 1022.60 1022.80 1022.80 1022.88 1022.84
1015.96 1016.08 1016.16 1016.36 1016.52 1016.64 1016.68 1016.88 1017.08 1017.24 1017.40 1017.56 1017.68 1017.76 1017.96 1018.16 1018.32 1018.52 1018.80 1019.00 1019.28 1019.48 1019.72 1020.00 1020.24 1020.44 1020.60 1020.68 1020.84 1020.96 1021.04 1021.24 1021.44 1021.56 1021.80 1021.96 1022.08 1022.20 1022.36 1022.52 1022.68 1022.84 1022.68 1022.56 1022.56 1022.64 1022.56 1022.72 1022.72 1022.80 1022.92 1022.92
1015.96 1016.12 1016.24 1016.40 1016.48 1016.60 1016.76 1016.92 1017.08 1017.24 1017.36 1017.44 1017.56 1017.68 1017.84 1018.00 1018.16 1018.36 1018.56 1018.88 1019.04 1019.36 1019.56 1019.80 1020.08 1020.32 1020.44 1020.56 1020.72 1020.92 1021.08 1021.28 1021.52 1021.76 1021.96 1022.16 1022.32 1022.40 1022.48 1022.60 1022.64 1022.88 1022.88 1022.60 1022.64 1022.76 1022.64 1022.76 1022.68 1022.76 1022.92 1022.92
1016.24 1016.36 1016.40 1016.44 1016.52 1016.64 1016.76 1016.92 1017.04 1017.16 1017.24 1017.32 1017.48 1017.60 1017.72 1017.88 1018.04 1018.20 1018.40 1018.64 1018.96 1019.20 1019.52 1019.76 1019.92 1020.08 1020.36 1020.52 1020.68 1020.92 1021.12 1021.32 1021.56 1021.80 1022.04 1022.28 1022.48 1022.60 1022.68 1022.68 1022.76 1022.88 1022.80 1022.84 1022.84 1022.80 1022.72 1022.76 1022.68 1022.80 1022.80 1022.84
1016.28 1016.40 1016.52 1016.56 1016.60 1016.68 1016.72 1016.88 1017.00 1017.12 1017.24 1017.36 1017.40 1017.52 1017.68 1017.76 1017.88 1018.04 1018.24 1018.44 1018.72 1019.08 1019.36 1019.64 1019.88 1020.04 1020.12 1020.36 1020.64 1020.84 1021.08 1021.24 1021.56 1021.72 1021.92 1022.24 1022.40 1022.72 1022.84 1022.88 1022.92 1022.96 1022.84 1022.80 1022.76 1022.72 1022.80 1022.64 1022.76 1022.84 1022.68 1022.76
1016.60 1016.68 1016.80 1016.88 1016.96 1017.00 1017.12 1017.20 1017.24 1017.32 1017.32 1017.36 1017.48 1017.56 1017.68 1017.76 1017.84 1018.00 1018.20 1018.36 1018.56 1018.88 1019.12 1019.36 1019.56 1019.72 1020.00 1020.24 1020.52 1020.76 1021.04 1021.24 1021.40 1021.64 1021.84 1022.08 1022.20 1022.44 1022.72 1022.92 1022.96 1023.20 1023.00 1022.96 1022.80 1022.80 1022.76 1022.64 1022.72 1022.68 1022.68 1022.64
1017.08 1017.08 1017.16 1017.28 1017.36 1017.44 1017.48 1017.56 1017.68 1017.72 1017.80 1017.84 1017.84 1017.84 1017.76 1017.80 1017.88 1018.04 1018.20 1018.36 1018.52 1018.68 1018.96 1019.16 1019.32 1019.60 1019.80 1020.12 1020.32 1020.68 1020.92 1021.08 1021.24 1021.44 1021.68 1022.00 1022.12 1022.08 1022.24 1022.68 1022.72 1022.96 1023.12 1023.08 1023.00 1022.88 1022.80 1022.72 1022.72 1022.64 1022.56 1022.52
1017.64 1017.68 1017.72 1017.80 1017.88 1017.88 1017.92 1018.08 1018.12 1018.16 1018.12 1018.20 1018.24 1018.24 1018.32 1018.40 1018.40 1018.40 1018.40 1018.44 1018.56 1018.72 1018.88 1019.04 1019.28 1019.60 1019.84 1020.04 1020.28 1020.56 1020.84 1021.00 1021.32 1021.52 1021.60 1021.80 1022.20 1022.28 1022.28 1022.48 1022.60 1022.72 1023.00 1023.20 1023.16 1023.12 1022.96 1022.84 1022.92 1022.68 1022.60 1022.48
1017.80 1017.88 1018.00 1018.12 1018.28 1018.36 1018.52 1018.52 1018.56 1018.52 1018.48 1018.64 1018.64 1018.68 1018.64 1018.68 1018.80 1018.96 1019.00 1019.04 1018.96 1018.88 1018.96 1019.16 1019.44 1019.64 1019.80 1019.92 1020.16 1020.44 1020.80 1021.08 1021.36 1021.56 1021.68 1021.64 1022.00 1022.36 1022.36 1022.28 1022.52 1022.68 1023.00 1023.16 1023.32 1023.28 1023.16 1023.12 1022.92 1022.80 1022.72 1022.68
1018.20 1018.28 1018.60 1018.72 1018.64 1018.76 1019.16 1019.16 1019.00 1018.96 1019.08 1019.04 1019.08 1019.12 1019.08 1019.12 1019.20 1019.20 1019.32 1019.36 1019.44 1019.56 1019.68 1019.68 1019.64 1019.60 1019.80 1020.00 1020.24 1020.48 1020.72 1021.00 1021.16 1021.12 1021.44 1021.60 1021.68 1022.04 1022.40 1022.64 1022.76 1023.04 1023.16 1023.52 1023.56 1023.52 1023.40 1023.32 1023.20 1022.88 1022.84 1022.72
1019.04 1018.96 1018.92 1019.16 1019.52 1019.84 1020.00 1019.84 1019.60 1019.48 1019.48 1019.40 1019.52 1019.44 1019.44 1019.48 1019.64 1019.76 1019.80 1019.80 1019.80 1019.84 1019.92 1020.08 1020.20 1020.32 1020.48 1020.40 1020.28 1020.32 1020.36 1020.44 1020.64 1020.92 1021.16 1021.48 1021.88 1021.96 1022.16 1022.44 1022.84 1023.08 1023.16 1023.04 1023.20 1023.44 1023.40 1023.24 1023.16 1023.04 1022.92 1022.68
1019.68 1019.96 1020.08 1020.08 1020.24 1020.32 1020.40 1020.36 1020.12 1020.04 1019.96 1019.88 1019.80 1019.80 1019.84 1019.88 1019.88 1019.92 1020.12 1020.32 1020.32 1020.32 1020.36 1020.40 1020.52 1020.64 1020.80 1020.92 1021.04 1021.04 1020.92 1020.92 1021.12 1021.36 1021.52 1021.68 1021.80 1022.12 1021.96 1021.92 1022.60 1022.96 1023.04 1023.32 1022.68 1022.84 1023.00 1023.12 1022.92 1022.80 1022.76 1022.52
1020.44 1020.40 1020.40 1020.44 1020.76 1020.64 1020.52 1020.88 1021.08 1020.88 1020.64 1020.16 1019.92 1020.00 1020.12 1020.24 1020.24 1020.32 1020.36 1020.44 1020.56 1020.68 1020.76 1020.76 1020.80 1020.96 1021.04 1021.20 1021.32 1021.36 1021.40 1021.48 1021.44 1021.44 1021.48 1021.64 1021.48 1021.84 1022.32 1022.24 1022.84 1022.92 1022.52 1022.12 1023.20 1023.56 1023.28 1022.68 1022.52 1022.16 1022.40 1022.16
1020.92 1020.84 1020.84 1020.84 1021.00 1021.12 1021.32 1021.68 1021.32 1021.04 1020.92 1020.68 1020.24 1020.12 1020.24 1020.32 1020.44 1020.56 1020.68 1020.76 1020.80 1020.88 1021.08 1021.16 1021.16 1021.16 1021.24 1021.32 1021.40 1021.48 1021.56 1021.64 1021.72 1021.80 1021.84 1021.88 1021.76 1021.68 1021.88 1022.28 1022.32 1022.80 1022.68 1022.48 1022.68 1022.80 1022.80 1023.20 1023.28 1021.52 1020.76 1021.56
1021.12 1020.96 1020.96 1021.08 1021.04 1021.28 1021.48 1021.64 1021.96 1022.00 1021.96 1021.88 1021.56 1021.20 1021.08 1021.16 1021.00 1020.80 1020.76 1020.92 1021.00 1021.12 1021.16 1021.32 1021.44 1021.44 1021.44 1021.44 1021.52 1021.60 1021.68 1021.72 1021.80 1021.92 1022.00 1022.12 1022.20 1022.12 1021.80 1021.96 1022.08 1022.52 1022.88 1022.68 1022.08 1021.60 1022.84 1023.04 1022.76 1021.68 1020.88 1022.08
1021.44 1021.72 1021.88 1021.96 1022.24 1022.60 1023.04 1023.36 1023.48 1023.56 1023.68 1023.20 1022.76 1022.40 1021.88 1021.56 1021.56 1021.48 1021.36 1021.36 1021.32 1021.36 1021.40 1021.36 1021.52 1021.64 1021.64 1021.68 1021.72 1021.76 1021.80 1021.84 1021.84 1021.84 1021.92 1022.00 1022.08 1022.24 1022.16 1021.88 1022.00 1022.20 1022.72 1022.68 1022.48 1022.44 1021.88 1021.80 1020.76 1020.72 1021.68 1021.96
1022.00 1022.24 1022.60 1022.96 1023.36 1023.72 1023.96 1024.16 1024.24 1024.12 1023.92 1023.84 1023.52 1022.92 1022.56 1022.28 1022.04 1022.08 1022.04 1021.96 1021.96 1021.96 1021.88 1021.84 1021.80 1021.80 1021.84 1021.92 1022.00 1022.00 1022.00 1021.96 1021.96 1021.96 1021.96 1022.00 1022.08 1022.04 1022.04 1022.20 1022.16 1022.16 1022.08 1022.52 1022.72 1022.76 1022.52 1022.72 1022.92 1022.60 1021.72 1020.60
Wind_Speed
16 16 16 16 15 15 14 14 13 13 12 12 11 10 10 9 11 10 12 13 12 12 10 10 10 9 9 9 10 7 6 7 4 2 10 12 8 5 4 3 3 3 4 5 6 6 6 7 7 7 5 5
16 16 15 16 15 15 15 14 14 13 13 12 12 11 10 9 10 11 11 13 12 12 10 8 8 8 8 8 7 8 8 5 5 6 11 10 8 5 4 3 2 3 4 5 6 6 6 7 8 7 6 4
12 16 15 15 15 15 15 15 14 14 12 11 10 10 9 9 11 11 12 13 13 12 11 9 9 8 8 8 8 7 6 6 6 7 11 9 8 6 5 4 3 3 4 5 6 6 6 7 7 7 5 4
9 13 15 15 15 15 14 14 14 14 13 12 11 10 9 9 10 10 10 12 11 12 13 12 9 9 6 8 9 6 9 10 8 10 11 9 9 7 6 4 3 3 3 5 6 6 6 6 7 5 4 3
9 10 13 12 14 15 14 13 13 13 13 12 10 9 9 9 8 7 6 9 7 11 9 11 11 10 8 7 7 9 9 10 10 10 11 10 9 8 7 5 4 2 4 5 6 6 5 6 5 4 4 3
6 6 10 9 8 8 10 11 11 10 7 8 5 9 7 5 6 6 6 7 8 7 8 10 13 10 9 8 5 8 11 11 10 11 11 10 10 9 8 6 2 1 1 4 5 4 4 4 3 3 4 3
5 6 6 8 8 7 8 7 8 6 6 5 5 4 5 4 5 5 6 6 7 6 8 8 12 12 10 8 7 8 11 10 10 13 12 11 10 11 8 4 3 1 1 1 3 4 3 3 3 4 4 3
6 6 6 6 6 6 6 6 6 5 5 5 5 5 5 4 5 5 5 6 10 9 7 7 10 12 11 9 8 9 8 10 9 10 11 10 10 7 4 3 3 1 1 2 2 1 1 2 2 3 3 4
7 6 5 5 5 6 6 5 5 6 6 6 6 6 5 5 5 5 5 5 5 6 6 5 5 5 5 5 4 6 5 5 5 5 6 5 6 4 4 3 2 1 1 1 1 0 0 1 2 3 3 3
6 5 6 6 6 5 5 6 5 5 5 5 6 5 5 5 5 5 5 5 6 6 6 6 6 6 5 5 6 4 6 4 4 5 6 6 5 4 3 3 2 1 1 2 1 1 1 0 2 2 2 2
6 7 7 6 6 6 5 5 6 5 5 5 5 5 5 5 5 5 5 6 6 6 6 6 6 6 6 6 6 4 6 5 5 6 6 6 6 5 4 2 1 1 1 1 2 2 1 1 2 2 2 2
7 6 6 7 6 7 7 6 6 5 5 5 5 5 5 5 5 6 5 5 6 6 5 6 6 6 6 5 6 5 6 6 4 5 5 5 5 5 4 4 3 2 2 3 3 3 3 2 2 2 3 2
6 6 6 6 7 7 6 6 6 6 5 5 5 5 6 6 6 5 6 6 5 4 6 4 5 5 5 5 5 5 5 6 6 5 5 5 5 6 5 3 3 3 4 3 3 5 4 3 3 3 3 3
5 6 7 7 7 7 6 6 6 5 6 6 6 5 6 7 6 6 6 6 5 6 5 4 4 4 5 5 5 5 6 4 5 5 4 4 5 5 4 4 3 2 4 4 4 4 4 4 4 4 4 4
5 4 6 6 5 5 6 6 6 6 6 6 6 7 7 6 6 6 5 6 6 5 6 5 5 5 4 5 5 4 5 4 5 5 6 6 5 6 5 4 3 3 4 5 4 4 4 5 3 3 2 3
5 6 5 4 4 5 5 5 6 6 6 6 6 6 7 7 7 6 6 7 6 6 6 6 6 5 6 6 5 5 5 5 4 5 4 4 4 4 4 4 3 3 4 4 4 3 4 3 4 3 3 3
2 2 3 5 4 4 4 5 5 6 6 6 6 6 7 7 7 6 7 7 7 7 6 6 7 6 6 6 5 5 4 5 3 3 3 2 2 3 3 3 4 2 3 4 4 3 4 4 4 3 3 4
2 1 1 1 3 3 5 5 6 6 5 6 6 6 7 7 7 7 6 7 6 6 6 6 7 7 6 6 5 5 5 6 5 5 4 3 3 2 3 4 3 3 4 4 2 4 4 4 4 5 4 5
3 2 3 1 1 3 4 5 5 4 4 6 6 6 6 6 7 7 7 7 8 7 6 6 6 6 7 6 5 6 5 6 5 5 6 5 5 2 2 3 3 4 5 4 5 5 4 5 4 3 5 4
7 6 5 5 5 5 4 3 2 1 2 3 3 5 4 5 5 6 6 6 7 7 7 7 8 7 6 6 6 6 5 5 6 6 5 5 6 5 4 3 4 2 4 4 5 4 5 6 4 5 4 5
8 9 8 7 7 7 7 6 6 6 5 5 3 1 2 4 5 5 4 5 6 6 7 7 7 6 7 6 7 6 6 6 6 7 6 5 6 6 7 6 5 4 4 4 5 4 4 4 4 5 6 6
8 7 8 8 7 8 9 8 7 7 7 7 5 6 6 5 3 1 3 5 5 5 5 4 5 5 6 6 6 6 6 6 4 4 6 6 4 5 5 6 6 6 4 3 4 4 4 4 3 5 5 5
8 8 8 7 8 9 8 8 8 7 8 6 7 7 6 6 6 5 6 4 1 3 5 5 4 5 5 6 6 6 6 5 4 4 4 6 5 3 4 5 6 6 5 3 2 3 3 3 4 5 4 3
8 8 8 9 8 10 8 7 8 8 7 7 8 8 8 8 7 6 6 6 5 6 5 3 0 3 6 5 5 6 6 5 6 9 7 6 7 5 2 1 3 3 5 2 1 2 3 3 3 4 4 4
8 8 7 8 8 6 6 6 6 8 7 8 8 9 10 9 8 8 8 8 6 5 4 4 4 4 3 1 3 6 8 8 8 6 5 4 3 6 4 2 3 3 4 5 0 2 3 5 3 3 3 5
8 6 3 3 3 3 6 7 8 7 6 6 7 8 9 9 9 9 8 8 7 7 6 6 5 5 4 4 4 4 2 1 1 2 3 4 3 2 6 6 5 5 6 0 5 3 3 4 5 4 4 5
7 6 8 8 7 7 4 4 4 3 3 4 7 7 7 7 8 8 9 9 8 7 7 7 6 5 4 3 4 3 3 2 1 2 4 5 5 4 1 1 2 6 8 6 2 2 1 4 2 4 4 6
6 6 6 7 7 8 9 5 7 9 10 10 10 9 8 8 7 7 7 7 7 7 7 7 6 5 4 3 1 1 2 1 2 1 2 3 5 3 3 3 5 6 7 4 7 3 7 3 2 6 7 9
8 10 10 8 10 10 11 11 11 10 11 10 9 10 10 10 9 8 7 7 7 6 6 5 5 5 4 3 2 1 1 2 3 2 2 2 3 3 6 5 4 4 6 7 7 6 3 1 2 6 5 2
10 10 10 11 11 10 8 9 9 9 8 9 9 7 7 11 11 11 10 9 9 8 7 7 5 4 5 4 4 2 2 2 2 3 3 5 5 5 5 6 4 4 4 9 9 5 3 3 3 1 2 1
10 11 10 10 9 7 6 6 5 4 5 6 7 8 9 8 10 10 11 10 10 10 10 9 7 6 5 4 5 3 3 3 3 3 3 2 3 5 5 3 6 6 6 4 7 7 8 5 2 2 1 5
Wind_Direction
187 190 188 188 187 190 191 193 193 194 196 197 198 203 206 199 180 191 191 198 186 177 168 167 158 160 166 168 171 195 226 237 184 196 103 111 119 126 125 122 107 89 80 80 83 72 65 66 68 73 83 86
190 191 190 189 189 190 190 193 193 194 196 198 199 200 200 196 181 184 185 190 185 170 167 161 154 159 170 182 219 203 224 219 202 132 120 117 126 131 139 131 107 86 82 84 77 62 57 52 57 66 75 81
195 193 193 191 192 192 191 192 192 193 194 198 200 197 195 190 178 182 182 176 177 167 162 160 164 167 176 192 206 219 153 164 189 148 125 128 129 145 146 140 115 97 91 94 77 63 54 50 54 64 69 67
195 199 195 194 193 195 194 194 193 191 191 194 198 197 192 184 179 181 182 180 180 171 164 164 164 171 182 197 208 160 154 159 171 137 135 137 140 149 153 148 127 116 121 111 88 70 53 53 67 69 66 69
200 201 200 199 197 197 196 194 195 193 188 187 193 193 191 181 179 178 179 182 180 171 167 165 165 173 184 197 197 155 159 170 164 159 141 144 150 154 156 132 126 141 144 124 97 75 59 65 72 91 89 78
203 201 199 201 201 201 200 197 194 193 188 187 188 192 187 180 181 175 176 181 174 174 173 168 168 174 182 186 155 162 158 168 172 150 146 154 153 160 133 120 103 19 40 113 88 73 68 68 89 104 106 101
201 201 199 205 199 199 199 198 194 192 187 184 188 189 185 179 179 179 177 176 172 172 173 174 174 173 182 170 161 165 161 170 176 157 155 162 176 137 130 126 140 168 230 91 63 64 63 78 89 111 107 103
197 199 195 201 199 194 194 193 192 188 184 182 185 183 179 175 179 179 176 175 168 163 169 178 183 174 176 164 159 166 166 168 174 182 166 176 141 122 126 147 164 193 197 79 40 40 59 65 105 111 120 122
200 195 191 198 195 193 189 188 188 187 182 182 181 180 177 172 174 175 171 166 165 168 164 163 178 174 167 153 158 154 159 162 172 159 134 119 118 133 141 155 196 186 149 63 42 341 5 57 94 101 110 118
192 182 199 199 194 189 190 185 187 188 181 176 176 175 178 165 173 172 165 168 169 167 166 167 173 175 163 161 169 162 159 161 152 143 134 134 139 155 150 175 188 203 170 166 288 301 302 280 108 111 107 108
177 193 199 199 192 189 198 187 184 193 185 178 173 174 171 170 184 175 168 171 172 174 173 174 175 174 170 172 172 174 154 163 159 150 149 149 157 153 157 175 252 269 289 215 194 242 239 222 133 123 129 119
189 192 188 193 187 195 193 186 192 194 193 172 174 175 173 186 184 174 175 178 178 180 176 182 177 172 176 173 175 170 165 159 161 157 154 154 153 155 166 182 236 239 226 226 191 179 208 171 148 151 147 143
193 183 188 184 189 197 185 190 195 191 180 181 171 173 176 184 186 177 177 180 185 156 188 175 176 174 183 176 174 163 179 167 162 162 163 163 162 165 172 182 234 220 212 207 188 172 181 172 169 160 151 157
183 190 187 193 194 192 176 193 189 175 184 188 173 176 183 187 187 181 178 178 168 173 183 176 176 181 181 182 174 176 174 176 160 163 159 161 164 168 177 181 220 183 196 201 188 183 167 182 184 175 165 173
198 175 195 197 191 178 190 186 171 181 183 183 186 184 181 184 188 176 173 175 175 182 175 175 176 188 173 184 188 183 174 164 170 161 174 174 173 176 173 197 195 188 186 194 198 188 167 192 179 185 184 172
185 189 194 176 170 189 191 169 178 182 180 187 192 185 183 186 188 177 179 177 179 181 173 177 181 180 179 194 182 181 170 169 162 167 170 166 166 168 165 188 194 215 188 196 207 186 188 178 182 187 186 180
194 159 156 163 178 176 169 176 171 179 190 193 193 187 187 189 189 184 178 185 181 179 177 177 178 182 192 187 180 178 165 158 141 128 130 148 123 146 151 173 207 209 224 192 216 203 205 179 199 195 175 191
30 34 73 128 156 153 158 176 176 190 194 193 192 191 193 190 190 187 184 173 178 172 171 177 183 183 187 182 176 163 148 159 155 149 146 159 136 171 175 197 204 188 217 242 222 214 204 190 201 188 194 189
48 59 61 58 100 157 170 169 178 182 182 187 196 189 198 195 191 191 181 177 171 174 169 171 181 186 189 169 162 165 167 157 159 154 168 150 165 161 212 214 202 201 210 205 217 216 196 201 210 199 202 199
50 50 48 45 33 32 29 43 50 81 159 163 168 181 188 195 191 186 180 175 170 170 176 177 182 190 167 167 159 164 161 153 166 169 164 177 164 169 214 199 238 241 226 220 222 226 211 210 194 201 210 208
38 41 47 46 49 52 50 44 38 32 25 27 28 23 163 184 179 173 164 170 175 171 176 178 180 176 169 160 163 163 168 176 174 167 172 180 189 179 183 191 208 215 221 231 236 230 223 220 199 203 206 210
40 37 40 39 41 47 50 44 41 37 41 36 29 29 24 16 21 63 134 160 167 171 174 173 166 153 157 160 160 163 169 181 158 166 167 183 198 185 166 192 196 210 210 220 243 253 243 242 228 224 220 222
42 41 43 47 42 44 41 40 39 35 42 35 39 34 30 40 42 30 25 17 10 155 161 160 157 163 171 166 162 161 164 150 153 157 183 183 191 195 204 189 197 189 174 196 238 261 277 288 248 251 250 256
35 44 42 37 29 37 25 33 40 38 42 34 37 27 32 34 33 39 43 37 31 25 14 6 58 167 159 159 147 155 158 169 176 187 184 201 181 181 180 93 152 125 127 63 36 336 322 315 312 283 272 263
33 30 27 38 41 43 24 33 39 44 37 45 39 34 32 31 35 37 35 28 31 33 40 40 27 24 13 15 171 174 193 192 194 190 185 162 156 169 175 209 142 155 127 126 135 348 323 317 310 296 298 265
43 31 48 72 30 43 33 23 32 38 29 42 46 43 38 33 26 29 38 36 33 33 35 37 32 27 26 17 345 341 14 109 116 125 149 142 170 217 186 205 177 172 124 226 197 196 289 320 304 284 297 276
34 32 39 51 34 31 28 37 17 34 27 46 54 53 50 41 36 33 27 23 30 38 32 34 37 34 36 33 15 351 345 5 256 203 185 178 191 199 255 199 167 179 195 182 124 112 73 284 297 312 288 265
30 47 54 53 53 45 59 32 7 19 18 13 22 27 26 36 37 37 34 31 31 32 38 38 35 26 32 29 47 26 328 332 293 262 232 215 228 183 187 214 225 201 205 139 137 262 213 231 154 300 260 243
39 40 38 33 40 40 31 25 23 21 14 12 17 19 14 8 9 19 33 30 33 38 29 40 44 39 29 25 23 29 318 273 258 261 261 260 257 221 220 230 231 217 209 221 223 174 97 343 278 230 253 355
50 53 53 47 44 36 32 32 19 21 5 5 12 12 13 22 24 18 13 14 14 19 24 21 31 40 37 27 12 5 315 304 310 264 231 216 217 237 251 250 229 249 225 229 238 239 217 150 183 232 271 63
50 54 53 60 64 64 56 54 20 1 11 12 360 19 23 21 26 26 27 22 24 17 14 10 11 19 34 36 30 14 360 328 294 289 272 281 232 231 238 243 254 233 239 241 253 257 258 259 199 157 123 249